Dewpoint
-3 -3 -1 -2 -2 -4 -4 -0 4 2 2 5 5 6 5 5 5 5 5 5 6 6 7 7 7 7 6 5 4 6 5 6 7 6 2 -3 -3 -3 -4 2 2 -2 -1 1
-3 -1 -1 -2 -1 -4 -2 0 2 1 2 6 6 3 3 3 5 5 5 6 5 5 7 8 7 7 5 5 4 5 4 7 5 5 4 1 4 -0 -1 0 1 5 4 1
-6 -4 -1 -1 -1 -2 -3 -1 0 1 2 2 3 4 3 4 2 4 5 6 5 5 6 5 8 7 4 5 5 4 3 5 6 1 1 3 4 2 -0 1 3 1 2 -0
2 -5 -5 -4 -0 -1 -1 -0 2 1 3 2 2 2 2 3 3 3 4 5 5 5 6 6 6 5 4 3 2 4 4 6 5 4 4 4 4 3 3 3 2 3 1 -0
8 5 -4 -6 -3 -1 -2 1 2 -0 2 1 1 1 2 3 1 2 3 5 5 5 5 4 5 4 5 4 3 3 3 4 4 2 -1 1 3 3 3 3 2 2 1 2
7 7 6 2 -5 -4 -2 -1 -0 0 1 1 2 2 1 1 -0 -0 1 3 4 4 4 4 4 4 4 4 4 3 3 2 1 -1 2 2 1 -1 0 -0 -1 1 2 -1
7 7 7 8 4 -4 -3 -2 -1 0 0 -0 1 0 1 1 -0 -1 -2 2 1 -1 -2 -4 -4 -3 -2 -1 0 3 2 4 4 3 2 5 0 -1 0 1 -0 -1 -1 -0
7 7 7 7 8 7 1 -2 -2 -2 -2 -3 -2 -1 -1 -1 -1 -1 -1 -2 -2 -3 -4 -4 -3 -2 -2 -1 -0 -1 1 1 2 4 4 2 1 -1 1 2 0 -0 0 3
7 7 7 7 7 7 7 5 -0 0 1 2 -2 -3 -2 -2 -2 -3 -2 -3 -3 -3 -3 -2 2 5 -0 2 -0 3 2 1 2 6 7 7 1 -1 -1 -1 2 0 2 2
6 7 7 7 7 7 7 7 6 5 2 3 1 1 2 -2 -3 -2 -3 -2 -2 -2 0 2 3 2 -2 2 1 4 6 5 6 5 6 4 0 -1 -0 3 2 4 1 -2
6 7 7 8 7 7 8 7 6 5 4 5 5 3 1 -1 -2 2 -2 -0 -0 0 1 2 2 1 -1 1 -1 3 4 6 6 5 6 7 1 1 2 1 3 0 -1 -1
5 6 6 7 7 7 7 7 7 6 5 6 5 5 5 4 4 2 -1 2 0 -0 2 1 1 2 1 0 4 -2 2 2 3 4 5 1 1 1 1 -0 -1 -1 -0 1
5 5 6 6 6 7 7 7 6 5 5 5 5 5 4 5 5 5 2 0 -0 -1 -1 2 3 5 3 4 3 2 -0 -2 -0 1 0 0 -0 0 0 0 -1 -1 -0 -0
2 3 4 5 6 6 6 6 6 5 5 5 5 4 4 4 4 5 5 4 3 2 1 3 4 5 3 4 3 3 1 0 2 2 0 -1 -1 -1 -1 -1 -0 -0 -1 -2
-0 1 3 4 5 5 5 5 5 6 6 5 5 4 4 4 4 4 4 5 4 3 3 3 4 3 3 3 4 4 1 2 3 3 -0 0 0 0 1 1 0 -0 -1 -0
-3 -2 -1 2 3 4 5 5 5 5 5 5 4 4 3 3 4 4 4 5 4 3 3 3 3 3 3 4 5 2 2 2 1 1 1 1 0 -0 1 1 1 0 0 -1
-4 -3 2 3 3 3 4 5 4 4 5 4 4 4 2 2 3 4 4 4 4 3 3 3 3 3 4 4 4 1 1 1 1 2 2 1 0 -0 0 0 0 -0 -1 -4
2 2 3 3 3 3 4 4 4 4 4 4 2 2 2 2 3 3 3 4 3 3 3 3 4 3 3 4 2 1 1 1 1 1 1 1 1 0 0 -0 -1 -3 -15 -20
2 2 2 3 3 3 3 3 4 4 4 3 2 3 4 2 2 2 2 3 3 3 3 3 3 3 3 2 1 0 0 1 1 0 -0 -0 0 -0 -1 -1 -9 -21 -21 -20
2 2 2 2 2 2 2 2 3 3 3 2 1 1 2 1 2 2 2 2 2 3 2 1 2 2 0 0 0 0 1 1 1 -1 -2 -2 -1 -2 -2 -16 -22 -20 -20 -19
2 2 1 1 2 2 1 1 1 1 1 1 0 0 1 0 2 2 2 2 1 2 -0 2 1 1 -0 -1 -1 -1 -1 0 0 -0 0 0 -1 -3 -24 -22 -20 -20 -19 -20
1 1 1 1 0 0 0 1 -1 -1 1 -2 -0 -1 0 1 1 2 0 2 0 1 -2 -0 -0 -3 -4 -5 -4 -3 -1 -1 -1 -0 -1 -4 -20 -29 -24 -21 -20 -19 -19 -19
1 1 1 0 -1 0 1 1 -0 -1 -2 -3 -2 -1 -0 -0 0 1 1 0 0 -3 -1 -1 -3 -5 -6 -6 -4 -2 -1 -1 -1 -7 -16 -30 -27 -21 -20 -19 -18 -18 -18 -18
-1 1 1 -1 0 -0 0 -2 -1 -3 -4 -3 -2 -1 -1 -1 -1 -0 0 -1 -2 -1 -1 -2 -5 -6 -8 -7 -4 -2 -2 -2 -6 -22 -26 -24 -21 -19 -17 -16 -16 -17 -18 -18
-0 0 0 -0 -2 -3 -4 -3 -4 -4 -4 -3 -2 -2 -2 -2 -1 -1 -1 -1 -1 -3 -3 -5 -7 -9 -10 -7 -4 -3 -4 -6 -13 -26 -24 -20 -17 -16 -16 -15 -16 -18 -18 -17
-0 -0 0 -3 -3 -3 -4 -4 -4 -3 -3 -3 -2 -2 -1 -1 -2 -1 -2 -2 -2 -3 -5 -6 -8 -10 -10 -6 -4 -4 -4 -8 -23 -23 -18 -16 -16 -15 -15 -16 -17 -18 -17 -16
-0 -1 -1 -1 -2 -2 -3 -3 -3 -3 -2 -1 -2 -2 -2 -3 -2 -2 -4 -3 -5 -6 -10 -11 -13 -12 -8 -7 -5 -4 -5 -12 -18 -17 -16 -15 -14 -14 -14 -16 -17 -16 -16 -17
Wind_Speed
7 5 7 10 12 5 7 6 2 9 13 5 4 3 3 2 1 3 3 4 4 3 2 3 2 3 1 4 5 5 1 2 3 2 3 3 1 1 5 3 4 3 3 8
5 5 5 8 11 9 6 4 3 10 8 3 4 3 4 4 3 4 2 3 4 2 3 3 2 1 1 4 4 3 5 2 2 5 3 2 4 4 4 1 2 15 5 7
3 3 3 5 7 10 6 3 2 6 10 7 4 4 4 4 6 4 6 4 3 3 3 5 3 2 2 1 2 4 3 1 5 3 4 3 4 5 10 12 8 13 18 22
2 4 3 2 4 7 4 4 3 3 3 4 4 3 2 3 2 3 5 3 3 3 3 2 2 1 1 2 3 3 2 5 7 12 14 12 14 15 17 17 21 18 24 25
3 2 4 4 2 5 6 3 2 5 4 2 1 1 2 4 3 2 1 3 3 3 3 4 2 1 1 1 2 1 1 5 3 12 13 12 17 19 21 24 25 27 28 29
4 1 2 3 2 1 3 5 5 3 2 3 2 1 2 4 2 2 4 2 3 3 3 2 1 3 5 3 3 2 2 3 5 11 4 12 14 19 21 16 18 16 16 17
5 3 1 1 3 3 2 4 3 1 2 2 2 2 2 2 1 3 1 3 1 3 4 2 2 6 10 13 15 14 8 4 3 8 8 7 3 2 7 12 16 16 18 15
8 4 4 2 1 3 5 3 3 3 2 1 1 3 1 2 3 3 3 1 2 5 2 2 4 1 2 1 2 8 14 9 4 4 7 15 17 7 6 8 14 11 8 8
8 9 6 4 3 4 5 6 6 1 2 3 5 5 7 3 3 2 1 2 2 4 2 1 0 2 3 3 2 9 4 11 7 1 5 6 3 2 2 2 16 9 10 10
11 10 9 8 5 4 3 4 7 5 1 3 3 1 1 5 2 2 1 2 3 5 2 2 4 4 1 4 4 4 4 4 15 13 9 10 11 10 1 8 6 12 7 2
12 12 11 11 10 8 8 7 7 10 7 7 10 11 8 6 5 3 8 3 1 2 3 2 3 5 5 3 2 5 9 8 6 7 6 11 9 4 7 2 7 7 4 5
14 13 14 13 13 12 10 10 10 10 10 5 7 10 12 14 11 8 14 2 4 8 3 3 2 3 2 6 5 6 7 11 5 10 8 7 9 8 7 4 4 5 7 11
14 14 13 13 12 12 10 11 9 7 4 9 14 11 2 12 13 20 8 9 11 8 9 7 3 5 4 5 7 7 7 11 6 15 14 24 23 15 13 15 15 16 17 13
13 14 15 14 12 11 11 12 9 8 3 3 5 9 11 7 6 13 23 17 12 10 13 5 3 3 12 4 9 8 9 1 17 22 23 30 28 20 18 17 15 13 11 9
11 11 11 10 10 11 10 11 12 12 9 2 5 11 20 21 20 18 17 22 23 11 6 5 4 4 4 4 3 6 10 22 14 19 26 23 25 22 18 13 11 11 10 8
12 13 12 10 8 8 7 4 12 15 13 4 2 4 8 10 13 15 17 18 16 12 7 5 6 7 11 4 5 8 29 34 33 30 33 31 26 26 20 15 13 11 8 5
10 11 9 9 9 9 7 3 2 4 17 3 4 5 4 8 13 8 10 13 9 10 5 7 7 10 13 4 14 32 34 33 28 28 29 24 28 16 17 15 12 8 4 3
6 6 6 8 7 8 13 15 7 8 12 6 2 3 5 5 3 1 4 3 5 8 6 5 5 5 7 5 26 35 32 25 25 28 29 23 20 16 11 12 9 3 5 6
9 8 7 8 8 6 7 11 13 13 9 4 5 4 3 6 3 4 3 5 3 7 3 4 5 5 6 16 22 20 15 17 22 21 22 16 11 11 11 8 7 7 5 6
10 7 4 4 5 7 4 3 4 8 6 6 4 7 3 8 8 7 3 5 2 3 3 3 4 8 28 34 36 35 29 23 21 12 10 11 11 12 8 9 7 5 6 9
12 6 5 7 8 4 2 2 3 4 3 6 6 14 4 8 3 3 7 1 1 3 2 2 4 4 8 17 23 26 25 20 21 18 14 11 9 12 11 6 4 6 10 13
10 5 6 7 4 2 2 3 1 4 5 5 5 6 6 6 6 3 4 2 2 5 2 2 4 3 5 9 10 9 6 10 12 12 10 12 12 10 5 5 7 10 12 15
10 5 5 5 3 2 5 6 4 4 6 8 6 3 5 4 6 3 3 4 5 0 3 4 6 7 12 11 7 5 8 11 13 12 14 12 9 6 6 8 10 13 15 17
8 8 5 5 5 6 6 5 2 4 4 14 11 5 3 4 4 2 4 3 1 3 5 7 3 7 10 9 7 9 13 15 15 15 12 9 8 10 10 12 14 16 19 21
6 7 6 7 9 8 5 10 4 4 11 19 7 3 5 2 3 4 2 3 5 6 6 3 6 7 9 9 11 14 16 18 18 15 12 11 12 12 13 15 17 19 21 22
6 8 4 3 2 4 9 11 9 12 19 10 4 2 2 5 4 6 8 4 8 4 4 10 9 9 8 9 13 17 19 19 17 15 14 13 14 15 18 19 19 20 22 24
7 7 18 15 9 11 13 16 15 17 19 4 4 6 12 2 4 5 6 6 3 7 9 11 10 9 8 8 12 17 20 20 19 17 16 15 16 18 20 21 21 22 23 25
Wind_Direction
37 54 45 38 32 41 22 47 68 15 7 38 52 57 49 114 50 52 81 94 84 90 93 85 97 137 301 164 166 171 127 144 195 149 99 37 23 199 206 237 159 240 336 268
14 25 29 29 34 47 32 59 52 30 7 95 79 91 96 73 44 34 50 82 42 57 98 99 98 146 58 176 180 161 175 185 192 153 148 140 214 184 184 175 196 238 217 250
324 356 11 26 27 43 64 62 92 41 56 51 40 67 51 73 29 48 38 68 40 83 77 39 132 127 36 122 323 0 178 236 268 298 75 99 198 189 210 211 236 255 233 258
142 266 287 23 37 20 53 57 73 51 76 68 77 38 25 80 65 38 27 78 76 105 107 84 71 82 65 93 17 35 325 270 262 271 278 273 270 268 250 243 255 259 267 271
29 115 274 279 45 37 60 81 112 81 80 345 39 66 156 166 181 191 146 117 124 84 90 61 101 107 198 338 72 111 39 273 312 286 283 283 276 265 261 255 259 262 265 273
321 63 117 305 258 152 76 81 90 99 106 127 223 294 139 169 204 48 57 118 132 107 58 87 37 308 298 309 299 198 237 276 288 278 355 309 278 244 243 244 242 249 263 278
289 300 202 200 212 201 149 112 98 58 108 206 199 163 149 151 141 119 89 107 103 137 101 1 265 234 233 229 233 230 231 234 253 284 304 247 46 281 256 263 265 265 262 271
263 262 284 248 169 195 196 177 129 129 129 215 272 225 1 5 17 0 339 6 91 140 27 341 323 277 256 145 55 238 230 229 264 267 260 294 281 269 206 214 273 240 241 186
257 262 257 273 275 182 180 209 209 174 149 181 163 152 182 182 182 155 62 3 162 141 82 100 168 283 331 312 308 31 184 225 224 168 262 262 66 260 12 328 278 194 189 176
251 259 264 262 260 284 255 211 206 192 221 275 198 134 172 153 120 78 88 133 139 161 121 143 188 242 274 237 230 178 138 185 213 227 245 262 260 251 63 244 320 148 157 182
246 248 252 257 256 252 252 262 239 197 194 222 211 205 182 167 175 154 161 135 143 83 159 184 210 216 213 230 210 196 190 187 197 215 238 266 258 198 219 255 135 151 220 256
247 248 248 249 255 258 253 248 250 235 229 246 231 237 236 228 225 187 182 221 162 169 162 207 183 204 218 236 265 207 242 223 260 207 221 266 225 233 216 282 241 221 270 281
233 241 239 242 248 252 257 251 250 209 235 269 260 274 325 233 244 228 200 224 216 204 201 167 168 232 194 208 229 244 229 250 245 265 242 250 258 243 254 245 251 268 273 259
232 231 236 237 239 239 236 244 253 218 215 267 278 291 293 279 224 214 220 231 215 222 208 196 192 203 204 227 267 252 262 289 259 268 272 278 276 262 260 250 247 236 231 230
235 231 220 222 230 235 235 241 248 241 219 250 266 284 282 280 270 256 237 229 227 216 178 203 213 212 224 211 239 236 217 245 254 264 280 286 283 277 268 257 248 237 230 253
226 223 224 221 214 226 216 240 256 232 224 297 313 269 255 261 256 242 240 237 228 214 200 204 218 201 196 246 238 223 236 245 256 264 273 280 280 267 251 251 255 245 249 251
222 212 197 198 198 207 193 198 160 182 203 215 299 295 272 260 239 243 244 241 223 214 224 219 209 207 210 252 263 264 264 264 263 260 263 260 260 256 254 236 224 225 242 278
184 172 190 179 198 212 233 247 266 136 171 189 197 260 299 218 164 198 207 190 208 227 235 233 220 202 205 258 253 266 268 271 263 255 256 253 260 237 202 190 185 189 199 232
163 173 195 194 198 211 235 239 235 217 206 220 185 182 220 182 161 190 205 212 238 241 237 222 213 189 218 236 264 276 275 246 262 262 251 245 214 187 179 185 179 200 234 277
175 168 175 196 186 190 190 188 189 197 218 235 224 215 191 164 174 191 222 208 230 251 228 241 228 249 252 259 263 271 275 269 267 229 195 179 184 179 189 185 208 246 286 300
186 197 193 181 179 178 173 131 168 200 252 220 222 200 163 187 172 189 214 199 210 251 215 254 258 256 239 253 267 272 274 266 247 245 243 221 208 192 180 207 262 293 299 301
182 195 160 160 173 147 155 186 200 222 237 210 181 177 171 164 169 176 191 238 191 252 138 245 262 254 287 313 304 299 261 224 209 198 191 175 163 170 197 256 276 283 290 299
162 198 174 152 152 187 211 196 217 224 203 179 155 142 160 141 180 178 177 225 233 85 227 238 244 270 296 302 290 232 192 184 183 169 165 168 179 203 253 279 291 297 301 307
177 172 192 202 187 221 200 205 186 205 166 153 141 135 164 153 172 193 221 206 213 241 235 239 253 274 302 293 251 205 185 183 184 180 184 201 230 256 276 295 301 303 305 306
187 182 218 211 220 227 231 222 214 198 161 152 133 140 165 165 216 205 201 204 237 230 236 233 241 268 294 261 224 203 197 193 193 200 219 238 254 267 280 290 294 297 298 300
217 225 224 181 222 231 213 212 213 194 169 151 140 147 192 223 213 193 207 203 224 231 218 238 256 267 267 235 216 212 206 205 207 222 238 249 262 273 280 285 291 296 297 300
218 233 222 213 231 223 227 217 218 196 164 193 172 187 213 133 209 215 194 216 222 221 231 245 265 258 251 231 221 215 211 214 223 235 248 259 268 276 282 290 297 296 297 300
Height
1483 1480 1476 1475 1472 1470 1470 1468 1468 1469 1464 1464 1473 1476 1480 1483 1485 1484 1484 1486 1487 1489 1494 1495 1496 1497 1499 1502 1503 1503 1504 1503 1506 1505 1511 1513 1511 1508 1508 1511 1523 1519 1523 1501
1483 1482 1479 1476 1474 1471 1470 1472 1474 1473 1469 1470 1475 1482 1484 1487 1485 1487 1487 1487 1490 1493 1494 1497 1499 1502 1503 1503 1504 1504 1504 1507 1504 1507 1512 1513 1510 1511 1511 1511 1514 1508 1513 1488
1483 1483 1481 1479 1476 1475 1474 1476 1476 1479 1478 1481 1481 1482 1486 1488 1491 1491 1490 1492 1494 1494 1497 1499 1501 1503 1505 1505 1506 1505 1505 1505 1502 1497 1502 1501 1508 1509 1508 1504 1504 1496 1490 1475
1484 1482 1482 1481 1480 1479 1478 1478 1484 1485 1485 1488 1489 1490 1490 1491 1492 1494 1494 1495 1496 1496 1500 1501 1503 1506 1505 1507 1507 1508 1509 1507 1505 1500 1500 1501 1502 1502 1499 1504 1498 1498 1482 1475
1483 1483 1481 1481 1481 1480 1480 1481 1484 1487 1491 1492 1490 1494 1494 1493 1495 1495 1496 1496 1499 1499 1499 1502 1504 1506 1507 1506 1509 1509 1513 1507 1508 1503 1498 1501 1501 1496 1493 1492 1488 1481 1477 1473
1481 1482 1483 1482 1482 1483 1482 1483 1485 1487 1494 1494 1493 1490 1493 1494 1495 1498 1498 1498 1497 1499 1503 1505 1506 1507 1508 1509 1508 1508 1511 1508 1507 1500 1505 1503 1493 1479 1479 1476 1471 1470 1473 1462
1480 1480 1481 1482 1482 1482 1484 1485 1486 1487 1490 1493 1492 1493 1494 1495 1496 1496 1498 1498 1498 1503 1503 1504 1504 1504 1504 1505 1504 1507 1505 1510 1510 1501 1502 1497 1471 1473 1473 1471 1465 1462 1459 1461
1478 1479 1479 1481 1482 1483 1484 1485 1487 1488 1490 1493 1493 1493 1493 1494 1495 1495 1498 1500 1501 1502 1504 1502 1501 1498 1500 1500 1505 1506 1507 1508 1507 1505 1494 1475 1471 1463 1467 1467 1456 1459 1458 1463
1476 1477 1478 1478 1479 1482 1484 1485 1486 1488 1490 1492 1492 1494 1495 1494 1496 1497 1498 1498 1500 1504 1506 1507 1511 1503 1500 1496 1500 1504 1504 1506 1509 1513 1507 1489 1467 1462 1464 1465 1457 1453 1460 1464
1475 1475 1476 1477 1478 1477 1480 1483 1485 1488 1489 1489 1491 1491 1493 1493 1495 1496 1499 1501 1503 1504 1507 1509 1513 1508 1508 1501 1498 1501 1508 1510 1503 1500 1497 1474 1463 1463 1466 1471 1450 1456 1460 1462
1471 1473 1474 1475 1475 1477 1479 1480 1482 1485 1487 1487 1488 1489 1490 1490 1492 1494 1499 1502 1502 1505 1507 1508 1506 1509 1503 1501 1494 1494 1492 1498 1498 1494 1494 1480 1455 1462 1463 1451 1453 1456 1459 1459
1467 1468 1470 1472 1472 1473 1474 1476 1479 1480 1483 1483 1483 1484 1485 1486 1488 1490 1492 1493 1493 1496 1501 1504 1504 1505 1506 1494 1487 1485 1486 1473 1469 1473 1462 1451 1449 1449 1450 1450 1452 1452 1454 1454
1464 1465 1466 1467 1469 1470 1471 1472 1475 1477 1479 1478 1477 1474 1476 1478 1480 1485 1489 1489 1490 1490 1491 1495 1496 1499 1495 1490 1480 1473 1470 1470 1470 1460 1446 1442 1444 1445 1445 1444 1449 1448 1450 1450
1461 1462 1463 1464 1466 1467 1469 1470 1473 1475 1477 1477 1473 1470 1472 1474 1475 1477 1480 1482 1484 1486 1488 1490 1490 1491 1486 1479 1470 1468 1466 1467 1454 1439 1441 1439 1441 1441 1441 1442 1443 1444 1445 1447
1458 1458 1460 1462 1464 1466 1467 1468 1469 1472 1476 1474 1471 1468 1468 1468 1469 1471 1474 1476 1479 1481 1484 1484 1482 1481 1482 1474 1471 1463 1464 1449 1447 1430 1439 1438 1435 1438 1436 1437 1438 1441 1442 1442
1454 1455 1456 1458 1461 1464 1466 1467 1467 1468 1471 1474 1472 1468 1465 1465 1464 1465 1467 1471 1474 1476 1475 1474 1473 1472 1475 1465 1454 1447 1442 1442 1442 1433 1435 1435 1433 1432 1432 1434 1435 1436 1436 1437
1451 1452 1454 1457 1459 1461 1464 1466 1466 1465 1469 1473 1472 1464 1462 1460 1461 1463 1465 1467 1469 1470 1470 1467 1466 1467 1468 1455 1443 1433 1434 1433 1431 1431 1430 1427 1426 1425 1426 1428 1430 1431 1433 1434
1449 1452 1454 1456 1459 1461 1462 1462 1464 1465 1468 1471 1470 1466 1463 1459 1460 1464 1464 1465 1466 1464 1461 1459 1457 1458 1456 1446 1421 1422 1423 1424 1424 1422 1421 1420 1420 1419 1420 1423 1427 1428 1431 1433
1450 1452 1455 1455 1457 1458 1459 1460 1461 1463 1468 1464 1462 1461 1458 1459 1461 1463 1463 1463 1463 1460 1454 1452 1452 1444 1440 1419 1415 1415 1416 1416 1416 1415 1415 1416 1418 1418 1419 1422 1426 1428 1429 1430
1450 1452 1454 1453 1454 1456 1458 1458 1460 1461 1460 1457 1455 1453 1454 1458 1459 1461 1464 1461 1459 1453 1448 1446 1440 1425 1421 1416 1414 1413 1412 1413 1413 1413 1415 1415 1416 1417 1419 1422 1425 1425 1426 1427
1449 1451 1450 1451 1452 1455 1455 1457 1459 1460 1456 1450 1447 1447 1449 1453 1457 1459 1458 1455 1456 1449 1444 1444 1430 1419 1408 1407 1406 1406 1405 1406 1407 1408 1410 1411 1414 1415 1419 1422 1423 1423 1423 1423
1445 1448 1449 1450 1452 1453 1455 1456 1457 1454 1447 1443 1443 1445 1446 1448 1451 1453 1455 1452 1454 1443 1446 1444 1426 1406 1404 1403 1401 1402 1404 1405 1405 1406 1408 1410 1413 1416 1418 1419 1420 1420 1419 1418
1443 1447 1446 1447 1450 1452 1449 1449 1446 1445 1435 1436 1439 1443 1446 1447 1449 1450 1451 1450 1444 1445 1442 1428 1407 1401 1400 1399 1398 1398 1400 1403 1405 1407 1409 1411 1413 1415 1416 1417 1417 1416 1414 1413
1439 1442 1442 1442 1441 1436 1429 1429 1427 1430 1429 1433 1438 1441 1444 1444 1447 1447 1443 1441 1443 1439 1435 1417 1400 1398 1399 1398 1398 1397 1398 1401 1405 1407 1409 1411 1412 1413 1412 1412 1412 1410 1408 1406
1432 1433 1430 1426 1425 1422 1422 1425 1427 1428 1429 1432 1438 1440 1442 1443 1442 1441 1440 1441 1435 1425 1410 1401 1396 1396 1395 1395 1396 1398 1398 1400 1402 1405 1407 1408 1409 1409 1408 1408 1407 1405 1403 1400
1426 1423 1418 1419 1423 1419 1419 1420 1423 1426 1428 1432 1435 1437 1437 1435 1433 1431 1427 1428 1418 1399 1399 1394 1394 1394 1393 1391 1393 1396 1397 1398 1399 1401 1403 1404 1404 1404 1404 1403 1402 1400 1397 1394
1416 1410 1408 1410 1410 1408 1410 1412 1416 1421 1427 1429 1431 1429 1425 1427 1423 1420 1415 1407 1392 1391 1391 1391 1391 1393 1392 1389 1391 1394 1394 1394 1395 1396 1398 1399 1399 1399 1398 1397 1396 1393 1391 1388